Regional Weather Roundup
Issued by NWS

Home | Current Version | Previous Version | Graphics & Text | Print | Product List | Glossary On
Versions: 1 2 3 4 5 6 7 8 9 10 11 12 13 14 15 16 17 18 19 20 21 22 23 24 25 26 27 28 29 30 31 32 33 34 35 36 37 38 39 40 41 42 43 44 45 46 47 48 49 50
000
ASUS43 KMPX 181701
RWRMN
WEATHER ROUNDUP FOR MINNESOTA
NATIONAL WEATHER SERVICE TWIN CITIES/CHANHASSEN MN
1200 PM CDT WED OCT 18 2017


NOTE: "FAIR" INDICATES FEW OR NO CLOUDS BELOW 12,000 FEET WITH NO
SIGNIFICANT WEATHER AND/OR OBSTRUCTIONS TO VISIBILITY. N/A MEANS
CURRENT SKY AND/OR WEATHER CONDITIONS ARE NOT AVAILABLE.

MNZ060>063-068>070-181800-
   Twin Cities Metro

CITY           SKY/WX    TMP DP  RH WIND       PRES   REMARKS
TWIN CITIES    CLOUDY    64  49  57 SW10      29.83F
ST PAUL        PTSUNNY   63  49  60 SW12      29.84R
CRYSTAL        MOSUNNY   62  46  55 SW10      29.81R
BLAINE         PTSUNNY   64  48  55 SW12G20   29.81R
LAKEVILLE      MOSUNNY   63  48  59 W6        29.84R
EDEN PRAIRIE   MOSUNNY   63  48  58 SW13      29.82F
SOUTH ST PAUL  MOSUNNY   64  48  56 SW10      29.82R
LAKE ELMO      FAIR      63  50  63 SW10      29.83R
$$
MNZ001>005-007-008-013>017-022>024-027-028-181800-
   Northwest Minnesota

CITY           SKY/WX    TMP DP  RH WIND       PRES   REMARKS
BEMIDJI        CLOUDY    58  23  25 W30G37    29.76R
HALLOCK        SUNNY     57  19  23 W30G37    29.70R
ROSEAU         CLOUDY    55  30  38 W26G36    29.65S
WARROAD        CLOUDY    54  34  47 W22G29    29.64R
CROOKSTON      CLOUDY    57  27  30 W25G31    29.80R
FOSSTON        CLOUDY    54  25  32 W17       29.80R
DETROIT LAKES  MOSUNNY   57  28  33 NW26G32   29.85R
MOORHEAD       CLOUDY    55  27  33 NW17      29.88R
PARK RAPIDS    MOSUNNY   62  33  33 NW23G35   29.79R
MAHNOMEN       FAIR      57  26  30 NW25G35   29.82R
$$
MNZ006-009>011-018-025>026-181800-
   North Central Minnesota

CITY           SKY/WX    TMP DP  RH WIND       PRES   REMARKS
BAUDETTE       PTSUNNY   54  29  38 W17G32    29.63R
FLAG ISLAND    CLOUDY    54  28  37 W23G30    29.57R
INTL FALLS     SUNNY     64  30  27 W22G32    29.61R
WASKISH        CLOUDY    57  34  41 W16G23    29.69R
BIG FORK       SUNNY     64  28  25 W14G22    29.69R
LONGVILLE      CLOUDY    64  36  34 W14G22    29.74R
GRAND RAPIDS   MOSUNNY   64  38  38 NW17G23   29.73R
CRANE LAKE     PTSUNNY   63  36  36 SW10G20   29.63R
ORR            CLOUDY    64  28  25 W16G23    29.62R
COOK           CLOUDY    63  39  42 W12G22    29.66R
WALKER         FAIR      60  32  34 W15G25    29.75R
$$
MNZ012-019>021-037-181800-
   Northeast Minnesota

CITY           SKY/WX    TMP DP  RH WIND       PRES   REMARKS
DULUTH         CLOUDY    61  45  55 SW18      29.70F
ELY            CLOUDY    61  39  44 SW13G18   29.64S
HIBBING        CLOUDY    61  41  47 SW9       29.68S
EVELETH        CLOUDY    63  35  35 SW14G22   29.69R
DULUTH HARBOR  CLOUDY    64  46  52 SW21G26   29.71S
TWO HARBORS    CLOUDY    64  48  55 SW13      29.67S
SILVER BAY     CLOUDY    64  46  52 S10       29.65F
GRAND MARAIS     N/A     53  48  83 W6        29.64F
G MARAIS ARPRT MOSUNNY   55  39  54 S16G24    29.65F
$$
MNZ029>031-032-039>041-046>048-054>057-064-181800-
   West Central Minnesota

CITY           SKY/WX    TMP DP  RH WIND       PRES   REMARKS
FERGUS FALLS   CLOUDY    61  32  33 NW25G32   29.87R
WHEATON        MOSUNNY   63  25  23 NW23G30   29.90R
MORRIS         CLOUDY    64  36  34 N24G31    29.86R
ALEXANDRIA     CLOUDY    62  34  35 NW26G32   29.85R
ELBOW LAKE     FAIR      59  34  38 W28G36    29.87R
WADENA         CLOUDY    61  34  36 NW21G26   29.81R
GLENWOOD       CLOUDY    63  37  39 NW22G31   29.85R
APPLETON       CLOUDY    64  32  29 NW20G29   29.87R
BENSON         MOSUNNY   64  37  36 N21G29    29.88R
ORTONVILLE     SUNNY     64  34  32 NW17G25   29.89R
MADISON        CLOUDY    66  36  32 N23G30    29.89R
WILLMAR        FAIR      64  45  48 NW16G23   29.87R
$$
MNZ033>034-036-042>043-049>051-058-059-181800-
   Central Minnesota

CITY           SKY/WX    TMP DP  RH WIND       PRES   REMARKS
ST CLOUD       MOSUNNY   62  46  55 W9        29.80S
SAUK CENTRE    FAIR      61  39  44 NW16      29.83R
PAYNESVILLE    MOSUNNY   66  40  39 NW14G23   29.83R
AITKIN         PTSUNNY   61  43  51 W3        29.74R
PINE RIVER     CLOUDY    63  37  39 W13       29.79S
BRAINERD       MOSUNNY   62  39  42 W15       29.77R
STAPLES        CLOUDY    64  30  27 NW17G25   29.79R
LONG PRAIRIE   FAIR      61  36  39 W20G25    29.82R
LITTLE FALLS   MOSUNNY   63  32  31 W9        29.79R
LITCHFIELD     SUNNY     64  45  48 W8        29.83R
BUFFALO        MOSUNNY   62  46  56 SW9       29.84R
MAPLE LAKE     MOSUNNY   63  49  59 SW6       29.83R
HUTCHINSON     SUNNY     66  47  50 W10G16    29.85R
$$
MNZ037-044-045-052-053-181800-
   East Central Minnesota

CITY           SKY/WX    TMP DP  RH WIND       PRES   REMARKS
PRINCETON      CLOUDY    64  48  55 SW8       29.81R
MORA           MOSUNNY   59  45  58 SW10G17   29.80S
CAMBRIDGE      CLOUDY    64  48  55 SW7G17    29.80S
RUSH CITY      MOSUNNY   62  48  60 SW10G16   29.80S
MOOSE LAKE     MOSUNNY   61  45  55 SW10      29.73S
HINCKLEY       FAIR      61  46  59 SW14      29.77S
CLOQUET        CLOUDY    61  43  51 SW9       29.72F
MCGREGOR       PTSUNNY   63  43  48 SW7       29.75R
$$
MNZ071>073-080-081-089-090-097-098-181800-
   Southwest Minnesota

CITY           SKY/WX    TMP DP  RH WIND       PRES   REMARKS
MONTEVIDEO     MOSUNNY   66  36  32 N20G28    29.88R
GRANITE FALLS  MOSUNNY   69  38  31 NW18G28   29.89R
CANBY          CLOUDY    67  31  26 NW15G28   29.91R
MARSHALL       MOSUNNY   68  34  28 N20G28    29.89R
REDWOOD FALLS  SUNNY     68  40  35 NW13      29.86R
OLIVIA         CLOUDY    70  43  37 NW15G22   29.85R
PIPESTONE      MOSUNNY   64  37  36 N16       29.91R
WORTHINGTON    CLOUDY    63  44  50 NW15G22   29.91R
JACKSON        MOSUNNY   63  45  51 W14G23    29.90R
TRACY          SUNNY     68  39  33 N22       29.89R
SLAYTON        MOSUNNY   64  42  43 NW12      29.91R
$$
MNZ065>067-074>077-082>085-091>093-181800-
   South Central Minnesota

CITY           SKY/WX    TMP DP  RH WIND       PRES   REMARKS
MANKATO        SUNNY     65  48  54 SW13      29.87R
NEW ULM        SUNNY     68  43  40 W14G20    29.84S
ST JAMES       SUNNY     66  46  48 SW14      29.87R
FAIRMONT       SUNNY     64  49  57 W13       29.89R
GLENCOE        MOSUNNY   63  47  54 W7        29.83S
FARIBAULT      MOSUNNY   64  48  55 SW10G17   29.88R
OWATONNA       MOSUNNY   68  50  52 S17       29.83S
WASECA         MOSUNNY   64  45  48 SW15G24   29.90R
$$
MNZ078>079-086>088-094>096-181800-
   Southeast Minnesota

CITY           SKY/WX    TMP DP  RH WIND       PRES   REMARKS
ROCHESTER      SUNNY     65  50  58 S18       29.88F
RED WING       SUNNY     66  45  45 S9        29.80F
STANTON        SUNNY     68  48  50 SW15G23   29.84R
DODGE CENTER   SUNNY     64  46  52 S17G23    29.85F
WINONA         SUNNY     68  48  49 S6        29.88F
AUSTIN         SUNNY     64  48  55 S15G21    29.87F
PRESTON        SUNNY     64  47  53 S17       29.90F
$$
ABBREVIATIONS USED IN REMARKS
   TC - TEMPERATURES IN CELSIUS
  WCI - WIND CHILL INDEX
   HX - HEAT INDEX
  VSB - VISIBILITY
$$




USA.gov is the U.S. government's official web portal to all federal, state and local government web resources and services.